Volver al catálogo

STARLINK-37980

ActivoComunicacionesVLEO
NORAD 100283·PAYLOAD·🇺🇸 United States

Lanzado Aug 11, 2026 desde Cape Canaveral Space Force Station

Loading…

Próximos Pases (próximas 24 horas)

TLE

ObsoletoSource: Space-Track

Época: Sep 8, 2026, 16:16 UTC

1 A0283U 26183M   26251.67797460  .00266230  00000-0  13929-2 0  9990
2 A0283  53.1582 315.1617 0008363  17.3945 342.7362 15.79511563  4455

Sigue STARLINK-37980 en tiempo real con AllMySat

Download on the App Store